Simultaneous Nadir Overpasses (SNOs) Predictions

Prediction of SNOs between METOP-A and NOAA-19 Satellite Orbit:

Table of predicted SNOs for the next 14.0 days since TLE Epoch: 7/26/2018
Index Date (METOP-A) Time (METOP-A) Lat,Lon (METOP-A) SZA (METOP-A ) Date (NOAA-19) Time (NOAA-19) Lat,Lon (NOAA-19) SZA (NOAA-19 ) Distance(km) Time Diff (sec)
1 08/04/2018 07:59:00 78.74, 69.41 61.57 08/04/2018 07:57:54 78.73, 69.51 61.56 2.30 66
2 08/04/2018 08:49:42 -78.73,-123.35 118.44 08/04/2018 08:48:49 -78.73,-123.20 118.44 3.23 53
3 08/04/2018 09:40:22 78.72, 43.94 61.57 08/04/2018 09:39:55 78.73, 44.03 61.58 2.24 27
4 08/04/2018 10:31:03 -78.75,-148.59 118.40 08/04/2018 10:30:50 -78.73,-148.68 118.42 2.76 13
5 08/04/2018 11:21:43 78.74, 18.70 61.61 08/04/2018 11:21:56 78.73, 18.55 61.59 3.44 13
6 08/04/2018 12:12:25 -78.72,-174.06 118.41 08/04/2018 12:12:51 -78.72,-174.16 118.40 2.19 26
7 08/04/2018 13:03:05 78.72, -6.77 61.60 08/04/2018 13:03:57 78.72, -6.92 61.61 3.41 52
8 08/04/2018 13:53:47 -78.70, 160.47 118.41 08/04/2018 13:54:52 -78.72, 160.36 118.39 3.14 65




NCC Satellite Simultaneous Nadir Overpasses (SNOs) Prediction Service
